Tracking 29510 objects as of 16-Sep-2024
HD Live streaming from Space Station
objects crossing your sky now

USA 173 DEB

Track USA 173 DEB now!
10-day predictions


NORAD ID: 28097
Int'l Code: 2003-054C
Perigee: 713.8 km
Apogee: 1,511.4 km
Inclination: 63.4 °
Period: 107.4 minutes
Semi major axis: 7483 km
RCS: Unknown
Launch date: December 2, 2003
Source: United States (US)
Launch site: AIR FORCE WESTERN TEST RANGE (AFWTR)

Note: This is SATELLITE DEBRIS
Your satellite tracking list
Your tracking list is empty




NASA's NSSDC Master Catalog

Two Line Element Set (TLE):
1 28097U 03054C   24224.83028283 0.00000500  00000-0  38876-3 0    09
2 28097  63.3883 118.0766 0532885   3.9106 356.0894 13.41016672    04
Source of the keplerian elements: McCants